EW7004 Weather Reports


Display with metric or nautical units.
time (UTC)temp
F
wind
direction
speed
MPH
gust
MPH
rain 1hr
in
rain 24hr
in
rain mn
in
humidity
%
barometer
mb
20211022194920 76 258 0.0 0.0 0.00 0.00 0.00 27 1014.9
20211022194419 76 258 0.0 0.0 0.00 0.00 0.00 26 1014.9
20211022193920 76 258 0.0 0.0 0.00 0.00 0.00 27 1015.1
20211022193420 76 258 0.0 0.0 0.00 0.00 0.00 28 1015.2
20211022192918 76 251 0.0 0.0 0.00 0.00 0.00 30 1015.4
20211022192417 75 250 0.0 0.0 0.00 0.00 0.00 30 1015.5
20211022191919 75 250 0.0 0.0 0.00 0.00 0.00 30 1015.6
20211022191420 75 250 0.0 0.0 0.00 0.00 0.00 30 1015.7
20211022190919 75 249 0.0 0.0 0.00 0.00 0.00 30 1015.7
20211022190417 74 249 0.0 0.0 0.00 0.00 0.00 31 1015.8
20211022185920 74 249 0.0 0.0 0.00 0.00 0.00 31 1015.9
20211022185417 73 250 0.0 0.0 0.00 0.00 0.00 31 1016.1
20211022184916 73 250 0.0 0.0 0.00 0.00 0.00 31 1016.0
20211022184417 73 250 0.0 0.0 0.00 0.00 0.00 31 1015.9
20211022183917 73 250 0.0 0.0 0.00 0.00 0.00 31 1015.9
20211022183420 72 250 0.0 0.0 0.00 0.00 0.00 32 1016.1
20211022182921 72 250 0.0 0.0 0.00 0.00 0.00 33 1016.3
20211022182420 72 250 0.0 0.0 0.00 0.00 0.00 33 1016.5
20211022181919 71 250 0.0 0.0 0.00 0.00 0.00 33 1016.4
20211022181420 70 250 0.0 0.0 0.00 0.00 0.00 34 1016.4
20211022180919 69 291 0.0 0.0 0.00 0.00 0.00 37 1016.2
20211022180418 69 291 0.0 0.0 0.00 0.00 0.00 36 1016.5
20211022175917 68 291 0.0 0.0 0.00 0.00 0.00 37 1016.5
20211022175419 68 291 0.0 0.0 0.00 0.00 0.00 37 1016.4
20211022174919 68 291 0.0 0.0 0.00 0.00 0.00 39 1016.4
20211022174417 68 286 0.0 0.0 0.00 0.00 0.00 38 1016.5
20211022173918 68 270 0.0 0.0 0.00 0.00 0.00 39 1016.6
20211022173419 68 270 0.0 0.0 0.00 0.00 0.00 38 1016.7
20211022172916 68 270 0.0 0.0 0.00 0.00 0.00 39 1016.7
20211022172420 67 270 0.0 0.0 0.00 0.00 0.00 40 1016.8
20211022171917 67 258 0.0 0.0 0.00 0.00 0.00 39 1016.7
20211022171421 66 239 0.0 0.0 0.00 0.00 0.00 40 1016.8
20211022170919 66 238 0.0 0.0 0.00 0.00 0.00 40 1016.9
20211022170420 65 238 0.0 0.0 0.00 0.00 0.00 41 1016.9
20211022165920 65 238 0.0 0.0 0.00 0.00 0.00 41 1016.9
20211022165420 64 238 0.0 0.0 0.00 0.00 0.00 43 1016.9
20211022164917 63 238 0.0 0.0 0.00 0.00 0.00 44 1017.0
20211022164421 62 238 0.0 0.0 0.00 0.00 0.00 44 1017.0
20211022163920 62 238 0.0 0.0 0.00 0.00 0.00 44 1017.0
20211022163419 61 238 0.0 0.0 0.00 0.00 0.00 45 1016.9
20211022162919 60 238 0.0 0.0 0.00 0.00 0.00 48 1016.9
20211022162419 59 238 0.0 0.0 0.00 0.00 0.00 50 1017.0
20211022161919 58 238 0.0 0.0 0.00 0.00 0.00 53 1016.9
20211022161419 57 238 0.0 0.0 0.00 0.00 0.00 54 1017.0
20211022160919 57 238 0.0 1.0 0.00 0.00 0.00 55 1017.2
20211022160420 56 238 0.0 2.0 0.00 0.00 0.00 54 1017.4
20211022155920 56 240 0.0 2.0 0.00 0.00 0.00 57 1017.3
20211022155420 56 240 0.0 2.0 0.00 0.00 0.00 58 1017.1
20211022154917 55 250 0.0 0.0 0.00 0.00 0.00 59 1017.0
20211022154419 55 251 0.0 0.0 0.00 0.00 0.00 59 1017.0
20211022153920 55 230 0.0 0.0 0.00 0.00 0.00 60 1016.9
20211022153419 54 230 0.0 0.0 0.00 0.00 0.00 60 1017.0
20211022152920 54 230 0.0 0.0 0.00 0.00 0.00 60 1016.8
20211022152419 54 230 0.0 0.0 0.00 0.00 0.00 61 1016.8
20211022151919 54 234 0.0 0.0 0.00 0.00 0.00 61 1016.7
20211022151420 54 234 0.0 0.0 0.00 0.00 0.00 61 1016.5
20211022150918 53 234 0.0 0.0 0.00 0.00 0.00 61 1016.4
20211022150420 52 234 0.0 0.0 0.00 0.00 0.00 62 1016.4
20211022145917 52 234 0.0 0.0 0.00 0.00 0.00 64 1016.4
20211022145417 51 226 0.0 0.0 0.00 0.00 0.00 65 1016.4
20211022144920 51 226 0.0 0.0 0.00 0.00 0.00 66 1016.3
20211022144416 50 226 0.0 0.0 0.00 0.00 0.00 67 1016.4
20211022143919 50 226 0.0 0.0 0.00 0.00 0.00 67 1016.4
20211022143417 50 225 0.0 0.0 0.00 0.00 0.00 67 1016.5
20211022142917 49 225 0.0 0.0 0.00 0.00 0.00 67 1016.5
20211022142417 49 225 0.0 0.0 0.00 0.00 0.00 67 1016.6
20211022141920 49 225 0.0 0.0 0.00 0.00 0.00 67 1016.5
20211022141419 49 225 0.0 0.0 0.00 0.00 0.00 67 1016.6
20211022140919 49 212 0.0 0.0 0.00 0.00 0.00 68 1016.6
20211022140420 49 212 0.0 0.0 0.00 0.00 0.00 68 1016.6
20211022135919 49 212 0.0 0.0 0.00 0.00 0.00 68 1016.6
20211022135418 49 212 0.0 0.0 0.00 0.00 0.00 68 1016.7
20211022134921 49 212 0.0 0.0 0.00 0.00 0.00 69 1016.9
20211022134421 49 212 0.0 0.0 0.00 0.00 0.00 69 1016.9
20211022133918 49 212 0.0 0.0 0.00 0.00 0.00 69 1016.9
20211022133421 49 212 0.0 0.0 0.00 0.00 0.00 69 1016.9
20211022132921 49 212 0.0 0.0 0.00 0.00 0.00 68 1016.9
20211022132420 49 212 0.0 0.0 0.00 0.00 0.00 67 1017.0
20211022131917 49 212 0.0 0.0 0.00 0.00 0.00 67 1016.9
20211022131420 49 212 0.0 0.0 0.00 0.00 0.00 67 1016.9
20211022130920 50 212 0.0 0.0 0.00 0.00 0.00 66 1016.8
20211022130420 50 212 0.0 0.0 0.00 0.00 0.00 66 1016.8
20211022125922 50 212 0.0 0.0 0.00 0.00 0.00 66 1016.7
20211022125418 50 212 0.0 0.0 0.00 0.00 0.00 66 1016.7
20211022124920 50 212 0.0 0.0 0.00 0.00 0.00 65 1016.7
20211022124420 50 212 0.0 0.0 0.00 0.00 0.00 65 1016.7
20211022123920 50 212 0.0 0.0 0.00 0.00 0.00 65 1016.6
20211022123419 50 212 0.0 0.0 0.00 0.00 0.00 65 1016.7
20211022122921 50 212 0.0 0.0 0.00 0.00 0.00 65 1016.6
20211022122420 51 212 0.0 0.0 0.00 0.00 0.00 64 1016.7
20211022121918 51 212 0.0 0.0 0.00 0.00 0.00 64 1016.6
20211022121421 51 212 0.0 0.0 0.00 0.00 0.00 64 1016.6
20211022120920 51 212 0.0 0.0 0.00 0.00 0.00 64 1016.5
20211022120417 51 212 0.0 0.0 0.00 0.00 0.00 64 1016.5
20211022115920 51 212 0.0 0.0 0.00 0.00 0.00 64 1016.4
20211022115417 51 212 0.0 0.0 0.00 0.00 0.00 64 1016.4
20211022114919 51 212 0.0 0.0 0.00 0.00 0.00 64 1016.4
20211022114420 51 212 0.0 0.0 0.00 0.00 0.00 64 1016.4
20211022113918 52 212 0.0 0.0 0.00 0.00 0.00 64 1016.3
20211022113418 52 212 0.0 0.0 0.00 0.00 0.00 64 1016.3
20211022112921 52 212 0.0 0.0 0.00 0.00 0.00 64 1016.3
20211022112421 52 212 0.0 0.0 0.00 0.00 0.00 64 1016.3
20211022111920 52 212 0.0 0.0 0.00 0.00 0.00 63 1016.3
20211022111420 52 212 0.0 0.0 0.00 0.00 0.00 63 1016.4
20211022110920 52 212 0.0 0.0 0.00 0.00 0.00 63 1016.4
20211022110418 52 212 0.0 0.0 0.00 0.00 0.00 62 1016.5
20211022105918 52 212 0.0 0.0 0.00 0.00 0.00 62 1016.5
20211022105420 52 212 0.0 0.0 0.00 0.00 0.00 62 1016.4
20211022104919 52 212 0.0 0.0 0.00 0.00 0.00 62 1016.4
20211022104419 52 212 0.0 0.0 0.00 0.00 0.00 62 1016.4
20211022103917 53 212 0.0 0.0 0.00 0.00 0.00 62 1016.4
20211022103420 53 212 0.0 0.0 0.00 0.00 0.00 62 1016.4
20211022102920 53 212 0.0 0.0 0.00 0.00 0.00 61 1016.5
20211022102420 53 212 0.0 0.0 0.00 0.00 0.00 61 1016.6
20211022101921 53 212 0.0 0.0 0.00 0.00 0.00 62 1016.7
20211022101420 53 212 0.0 0.0 0.00 0.00 0.00 62 1016.7
20211022100920 53 212 0.0 0.0 0.00 0.00 0.00 62 1016.7
20211022100419 53 212 0.0 0.0 0.00 0.00 0.00 62 1016.7
20211022095921 53 212 0.0 0.0 0.00 0.00 0.00 62 1016.7
20211022095419 53 212 0.0 0.0 0.00 0.00 0.00 61 1016.8
20211022094923 53 212 0.0 0.0 0.00 0.00 0.00 61 1016.9
20211022094421 54 212 0.0 0.0 0.00 0.00 0.00 61 1016.9
20211022093918 54 212 0.0 0.0 0.00 0.00 0.00 60 1016.9
20211022093420 54 212 0.0 0.0 0.00 0.00 0.00 59 1016.9
20211022092919 54 212 0.0 0.0 0.00 0.00 0.00 59 1016.9
20211022092420 54 212 0.0 0.0 0.00 0.00 0.00 60 1016.9
20211022091920 55 212 0.0 0.0 0.00 0.00 0.00 59 1016.9
20211022091418 55 212 0.0 0.0 0.00 0.00 0.00 58 1016.8
20211022090918 55 212 0.0 0.0 0.00 0.00 0.00 58 1016.9
20211022090418 55 212 0.0 0.0 0.00 0.00 0.00 58 1016.9
20211022085919 55 212 0.0 0.0 0.00 0.00 0.00 57 1016.9
20211022085417 56 212 0.0 0.0 0.00 0.00 0.00 57 1016.9
20211022084921 56 212 0.0 0.0 0.00 0.00 0.00 57 1016.9
20211022084419 56 212 0.0 0.0 0.00 0.00 0.00 57 1017.0
20211022083920 56 212 0.0 0.0 0.00 0.00 0.00 57 1017.0
20211022083421 56 212 0.0 0.0 0.00 0.00 0.00 57 1017.1
20211022082920 56 212 0.0 0.0 0.00 0.00 0.00 57 1017.1
20211022082420 56 212 0.0 0.0 0.00 0.00 0.00 56 1017.2
20211022081920 56 212 0.0 0.0 0.00 0.00 0.00 56 1017.2
20211022081420 56 212 0.0 0.0 0.00 0.00 0.00 56 1017.3
20211022080917 57 212 0.0 0.0 0.00 0.00 0.00 55 1017.4
20211022080420 57 212 0.0 0.0 0.00 0.00 0.00 55 1017.4
20211022075920 57 212 0.0 0.0 0.00 0.00 0.00 55 1017.4
20211022075420 57 212 0.0 0.0 0.00 0.00 0.00 55 1017.4
20211022074920 57 212 0.0 0.0 0.00 0.00 0.00 55 1017.4
20211022074420 57 212 0.0 0.0 0.00 0.00 0.00 55 1017.4
20211022073919 57 212 0.0 0.0 0.00 0.00 0.00 55 1017.5
20211022073419 57 212 0.0 0.0 0.00 0.00 0.00 55 1017.5
20211022072920 57 212 0.0 0.0 0.00 0.00 0.00 55 1017.5
20211022072420 57 212 0.0 0.0 0.00 0.00 0.00 56 1017.5
20211022071921 57 212 0.0 0.0 0.00 0.00 0.00 56 1017.6
20211022071418 58 212 0.0 0.0 0.00 0.00 0.00 57 1017.6
20211022070918 58 212 0.0 0.0 0.00 0.00 0.00 57 1017.7
20211022070420 58 212 0.0 0.0 0.00 0.00 0.00 56 1017.7
20211022065918 58 212 0.0 0.0 0.00 0.00 0.00 56 1017.8
20211022065420 58 212 0.0 0.0 0.00 0.00 0.00 55 1017.8
20211022064919 59 212 0.0 0.0 0.00 0.00 0.00 56 1017.8
20211022064418 59 212 0.0 0.0 0.00 0.00 0.00 55 1017.9
20211022063920 59 212 0.0 0.0 0.00 0.00 0.00 54 1018.0
20211022063421 59 212 0.0 0.0 0.00 0.00 0.00 53 1018.0
20211022062919 59 212 0.0 0.0 0.00 0.00 0.00 53 1018.0
20211022062420 59 212 0.0 0.0 0.00 0.00 0.00 53 1018.0
20211022061921 60 212 0.0 0.0 0.00 0.00 0.00 53 1018.1
20211022061418 60 212 0.0 0.0 0.00 0.00 0.00 52 1018.2
20211022060920 60 212 0.0 0.0 0.00 0.00 0.00 52 1018.2
20211022060417 60 212 0.0 0.0 0.00 0.00 0.00 53 1018.2
20211022055917 60 212 0.0 0.0 0.00 0.00 0.00 52 1018.2
20211022055418 60 212 0.0 0.0 0.00 0.00 0.00 52 1018.3
20211022054919 61 212 0.0 0.0 0.00 0.00 0.00 52 1018.3
20211022054418 61 212 0.0 0.0 0.00 0.00 0.00 52 1018.4
20211022053920 61 212 0.0 0.0 0.00 0.00 0.00 51 1018.3
20211022053420 61 212 0.0 0.0 0.00 0.00 0.00 51 1018.3
20211022052920 61 212 0.0 0.0 0.00 0.00 0.00 51 1018.3
20211022052420 62 212 0.0 0.0 0.00 0.00 0.00 51 1018.3
20211022051921 62 212 0.0 0.0 0.00 0.00 0.00 51 1018.3
20211022051420 62 212 0.0 0.0 0.00 0.00 0.00 51 1018.2
20211022050920 62 212 0.0 0.0 0.00 0.00 0.00 51 1018.2
20211022050417 62 212 0.0 0.0 0.00 0.00 0.00 51 1018.2
20211022045920 63 212 0.0 0.0 0.00 0.00 0.00 50 1018.1
20211022045417 64 212 0.0 0.0 0.00 0.00 0.00 52 1018.1
20211022044920 64 212 0.0 0.0 0.00 0.00 0.00 52 1018.0
20211022044421 65 212 0.0 0.0 0.00 0.00 0.00 51 1018.0
20211022043921 65 212 0.0 0.0 0.00 0.00 0.00 53 1018.0
20211022043417 65 212 0.0 0.0 0.00 0.00 0.00 53 1018.0
20211022042921 65 212 0.0 0.0 0.00 0.00 0.00 54 1018.0
20211022042420 65 212 0.0 0.0 0.00 0.00 0.00 54 1018.0
20211022041920 66 212 0.0 0.0 0.00 0.00 0.00 54 1017.9
20211022041420 66 212 0.0 0.0 0.00 0.00 0.00 54 1017.8
20211022040917 66 212 0.0 0.0 0.00 0.00 0.00 54 1017.8
20211022040417 66 212 0.0 0.0 0.00 0.00 0.00 53 1017.9
20211022035917 66 212 0.0 0.0 0.00 0.00 0.00 53 1017.8
20211022035421 67 212 0.0 0.0 0.00 0.00 0.00 52 1017.8
20211022034918 67 212 0.0 0.0 0.00 0.00 0.00 52 1017.8
20211022034420 67 212 0.0 0.0 0.00 0.00 0.00 51 1017.8
20211022033917 67 212 0.0 0.0 0.00 0.00 0.00 51 1017.7
20211022033418 68 212 0.0 0.0 0.00 0.00 0.00 51 1017.7
20211022032917 68 212 0.0 0.0 0.00 0.00 0.00 50 1017.7
20211022032420 68 212 0.0 0.0 0.00 0.00 0.00 49 1017.6
20211022031917 69 212 0.0 0.0 0.00 0.00 0.00 49 1017.6
20211022031418 69 212 0.0 0.0 0.00 0.00 0.00 48 1017.6
20211022030918 69 212 0.0 0.0 0.00 0.00 0.00 48 1017.6
20211022030418 70 212 0.0 0.0 0.00 0.00 0.00 47 1017.6
20211022025920 70 212 0.0 0.0 0.00 0.00 0.00 47 1017.7
20211022025420 70 212 0.0 0.0 0.00 0.00 0.00 46 1017.7
20211022024919 70 212 0.0 0.0 0.00 0.00 0.00 47 1017.7
20211022024420 71 212 0.0 0.0 0.00 0.00 0.00 46 1017.7
20211022023917 71 212 0.0 0.0 0.00 0.00 0.00 44 1017.6
20211022023419 71 212 0.0 0.0 0.00 0.00 0.00 44 1017.7
20211022022920 72 212 0.0 0.0 0.00 0.00 0.00 44 1017.6
20211022022419 72 212 0.0 0.0 0.00 0.00 0.00 43 1017.6
20211022021918 72 212 0.0 0.0 0.00 0.00 0.00 43 1017.6
20211022021421 72 212 0.0 0.0 0.00 0.00 0.00 43 1017.6
20211022020917 72 212 0.0 0.0 0.00 0.00 0.00 43 1017.5
20211022020420 72 212 0.0 0.0 0.00 0.00 0.00 43 1017.5
20211022015921 73 212 0.0 0.0 0.00 0.00 0.00 43 1017.4
20211022015421 73 212 0.0 0.0 0.00 0.00 0.00 42 1017.3
20211022014920 73 212 0.0 0.0 0.00 0.00 0.00 42 1017.2
20211022014421 73 212 0.0 0.0 0.00 0.00 0.00 41 1017.2
20211022013918 74 212 0.0 0.0 0.00 0.00 0.00 41 1017.1
20211022013420 74 212 0.0 0.0 0.00 0.00 0.00 40 1017.1
20211022012920 74 212 0.0 0.0 0.00 0.00 0.00 39 1017.0
20211022012419 75 212 0.0 2.0 0.00 0.00 0.00 39 1017.1
20211022011919 75 212 0.0 2.0 0.00 0.00 0.00 38 1017.0
20211022011420 75 212 0.0 3.0 0.00 0.00 0.00 38 1017.0
20211022010919 76 211 0.0 9.0 0.00 0.00 0.00 37 1016.9
20211022010420 76 211 0.0 9.0 0.00 0.00 0.00 37 1016.8
20211022005919 77 212 2.0 9.0 0.00 0.00 0.00 36 1016.7
20211022005419 78 212 0.0 3.0 0.00 0.00 0.00 35 1016.7
20211022004919 78 213 0.0 9.0 0.00 0.00 0.00 33 1016.7
20211022004417 79 216 0.0 9.0 0.00 0.00 0.00 33 1016.6
20211022003919 79 215 1.0 9.0 0.00 0.00 0.00 32 1016.6
20211022003419 80 215 2.0 9.0 0.00 0.00 0.00 32 1016.5
20211022002918 80 219 1.0 9.0 0.00 0.00 0.00 31 1016.4
20211022002419 80 219 0.0 6.0 0.00 0.00 0.00 31 1016.4
20211022001920 81 219 0.0 10.0 0.00 0.00 0.00 30 1016.3
20211022001419 81 218 1.0 10.0 0.00 0.00 0.00 29 1016.3
20211022000919 82 217 1.0 10.0 0.00 0.00 0.00 28 1016.3
20211022000419 82 213 1.0 10.0 0.00 0.00 0.00 28 1016.3
20211021235917 83 211 1.0 10.0 0.00 0.00 0.00 26 1016.3
20211021235419 83 210 2.0 9.0 0.00 0.00 0.00 26 1016.3
20211021234919 83 220 1.0 12.0 0.00 0.00 0.00 25 1016.2
20211021234417 84 214 0.0 12.0 0.00 0.00 0.00 25 1016.3
20211021233920 84 220 4.0 12.0 0.00 0.00 0.00 24 1016.3
20211021233418 85 229 0.0 3.0 0.00 0.00 0.00 22 1016.3
20211021232921 86 234 0.0 3.0 0.00 0.00 0.00 20 1016.4
20211021232421 86 234 0.0 13.0 0.00 0.00 0.00 16 1016.4
20211021231919 86 234 0.0 13.0 0.00 0.00 0.00 12 1016.4
20211021231420 87 233 2.0 13.0 0.00 0.00 0.00 15 1016.3
20211021230919 87 236 0.0 0.0 0.00 0.00 0.00 15 1016.4
20211021230419 87 236 0.0 0.0 0.00 0.00 0.00 12 1016.4
20211021225920 87 234 0.0 0.0 0.00 0.00 0.00 13 1016.5
20211021225420 87 234 0.0 0.0 0.00 0.00 0.00 13 1016.5
20211021224917 86 234 0.0 0.0 0.00 0.00 0.00 13 1016.5
20211021224417 86 234 0.0 0.0 0.00 0.00 0.00 13 1016.5
20211021223920 86 234 0.0 0.0 0.00 0.00 0.00 13 1016.6
20211021223418 87 234 0.0 3.0 0.00 0.00 0.00 13 1016.6
20211021222920 87 234 0.0 3.0 0.00 0.00 0.00 13 1016.6
20211021222419 87 233 0.0 3.0 0.00 0.00 0.00 13 1016.6
20211021221919 87 227 0.0 0.0 0.00 0.00 0.00 14 1016.7
20211021221419 86 227 0.0 0.0 0.00 0.00 0.00 14 1016.7
20211021220919 86 227 0.0 0.0 0.00 0.00 0.00 14 1016.8
20211021220420 86 227 0.0 0.0 0.00 0.00 0.00 14 1016.9
20211021215919 86 227 0.0 0.0 0.00 0.00 0.00 14 1016.9
20211021215419 87 227 0.0 0.0 0.00 0.00 0.00 14 1016.9
20211021214920 86 227 0.0 0.0 0.00 0.00 0.00 14 1017.0
20211021214420 86 227 0.0 1.0 0.00 0.00 0.00 14 1017.0
20211021213919 86 227 0.0 1.0 0.00 0.00 0.00 15 1017.0
20211021213417 86 227 0.0 1.0 0.00 0.00 0.00 15 1017.1
20211021212917 86 227 0.0 0.0 0.00 0.00 0.00 15 1017.2
20211021212419 86 227 0.0 0.0 0.00 0.00 0.00 15 1017.2
20211021211920 85 227 0.0 0.0 0.00 0.00 0.00 16 1017.3
20211021211420 85 227 0.0 0.0 0.00 0.00 0.00 16 1017.3
20211021210919 85 227 0.0 0.0 0.00 0.00 0.00 15 1017.4
20211021210419 85 227 0.0 0.0 0.00 0.00 0.00 15 1017.4
20211021205919 85 227 0.0 0.0 0.00 0.00 0.00 15 1017.5
20211021205419 85 227 0.0 0.0 0.00 0.00 0.00 14 1017.6
20211021204917 85 227 0.0 0.0 0.00 0.00 0.00 16 1017.6
20211021204418 85 227 0.0 0.0 0.00 0.00 0.00 15 1017.7
20211021203917 85 227 0.0 0.0 0.00 0.00 0.00 15 1017.7
20211021203419 84 222 0.0 0.0 0.00 0.00 0.00 16 1017.8
20211021202916 84 222 0.0 0.0 0.00 0.00 0.00 17 1017.8
20211021202419 83 222 0.0 0.0 0.00 0.00 0.00 17 1017.9
20211021201917 83 222 0.0 0.0 0.00 0.00 0.00 17 1018.0
20211021201420 82 222 0.0 2.0 0.00 0.00 0.00 18 1018.1
20211021200919 82 222 0.0 2.0 0.00 0.00 0.00 18 1018.2
20211021200420 82 222 0.0 2.0 0.00 0.00 0.00 19 1018.4
20211021195920 82 217 0.0 0.0 0.00 0.00 0.00 19 1018.5